Temp
11 10 10 9 8 8 8 8 7 7 7 8 8 8 7 8 7 7 7 8 8 8 8 8 7 8 8 8 8 8 7 7 7 7 7 7 6 6 6 6 6 6 5
11 11 10 9 9 8 8 8 8 8 8 8 8 7 7 7 7 8 7 7 7 7 8 8 8 8 8 8 8 7 7 7 7 7 6 6 6 6 6 6 5 5 5
11 10 10 10 9 8 8 8 8 8 8 8 8 8 7 7 7 7 7 7 7 7 7 8 8 8 8 8 8 8 7 7 6 7 7 6 6 6 6 5 4 5 4
10 10 10 10 9 9 8 8 8 8 7 8 7 7 7 7 7 6 6 6 7 7 7 7 8 8 8 8 8 8 8 8 7 6 6 6 6 5 5 5 4 4 4
10 10 10 10 9 9 8 8 8 7 7 7 7 7 6 6 6 6 6 6 6 6 7 7 7 7 7 7 7 7 7 7 7 7 6 6 6 6 5 4 4 4 4
10 10 10 10 9 9 8 8 7 7 6 6 5 5 5 6 6 6 6 6 6 6 6 6 6 6 6 7 7 7 7 7 7 6 6 6 6 5 6 5 4 4 4
10 9 9 9 9 9 9 8 7 7 7 7 5 5 5 5 5 5 5 5 5 5 5 6 6 6 6 6 6 6 6 6 6 6 6 6 6 5 5 5 4 3 3
10 9 9 9 9 9 9 8 7 7 7 6 5 5 5 4 5 5 5 5 5 5 5 5 5 5 5 6 6 6 6 6 6 6 6 5 5 5 5 5 5 4 4
9 9 9 9 9 8 8 8 7 7 7 7 6 5 5 5 4 5 5 5 5 5 4 5 5 5 5 5 5 5 5 5 5 5 5 5 5 5 5 5 4 4 4
9 9 8 9 8 8 8 7 7 7 7 7 7 6 5 5 5 4 5 5 5 5 4 4 5 5 5 5 5 5 5 5 5 5 5 5 5 5 5 4 4 4 4
9 8 8 8 8 8 8 7 7 7 7 7 7 6 6 5 5 4 4 4 5 5 4 4 4 5 5 5 5 5 5 5 5 5 5 5 5 5 5 5 4 4 4
9 8 8 8 7 8 7 7 7 7 8 8 7 7 7 6 5 4 4 4 4 4 4 5 5 5 5 5 5 5 5 5 5 4 4 4 4 4 5 4 4 4 4
8 8 8 8 7 7 7 7 7 7 8 7 7 7 7 6 6 4 4 3 4 4 4 4 5 5 5 5 5 5 5 5 5 4 4 4 4 5 4 4 4 4 3
6 7 7 7 7 7 7 7 7 8 8 8 8 7 7 7 6 5 4 4 4 4 4 4 4 4 4 4 5 5 5 5 5 5 4 3 4 4 3 3 3 3 3
6 6 7 7 7 7 7 7 7 7 8 8 7 7 7 7 7 5 5 4 4 4 4 4 4 5 4 4 5 4 4 4 4 4 4 3 3 3 3 3 3 3 2
6 6 7 7 7 7 7 7 7 7 7 7 7 7 7 7 7 6 6 5 4 4 4 4 4 4 5 4 4 5 4 4 4 3 4 4 3 3 2 2 2 2 2
6 6 6 6 6 6 7 7 7 7 7 7 6 6 6 6 6 6 6 5 5 4 4 4 4 4 4 4 4 4 3 3 2 2 2 2 2 2 2 2 2 1 1
5 6 5 6 6 6 7 7 6 6 6 5 5 5 6 5 5 5 5 5 5 5 4 4 4 4 4 4 3 3 3 3 2 1 1 1 1 1 1 1 1 1 0
4 5 5 5 6 6 6 6 5 5 5 4 5 5 5 5 5 5 4 5 5 4 3 4 4 3 4 4 3 2 2 2 1 2 1 -0 0 1 0 0 -0 -1 -1
3 4 4 4 5 5 4 4 3 3 3 3 4 4 5 5 4 4 4 4 4 3 3 2 2 2 2 3 2 2 2 2 0 0 0 0 -0 -1 -1 -1 -1 -1 -1
3 3 3 4 3 3 3 3 3 3 3 3 3 3 3 4 4 3 2 2 2 2 1 1 2 2 2 1 1 2 1 2 1 0 1 -0 -1 -0 -2 -2 -2 -2 -2
3 3 4 3 3 3 3 3 3 3 3 3 3 2 2 2 2 2 2 2 2 1 1 1 1 1 1 1 1 1 1 1 1 0 0 0 -0 -1 -2 -2 -2 -2 -3
4 4 4 3 3 3 3 3 3 3 3 3 2 2 1 1 1 1 1 1 1 0 0 0 0 0 -0 0 0 0 0 -0 -0 0 0 0 -0 -1 -2 -2 -2 -2 -2
3 4 4 4 4 3 3 3 3 3 2 1 0 0 1 1 1 0 -0 -0 -0 0 0 -0 -0 -0 -1 -1 -1 -1 -1 -1 -1 -1 -2 -2 -2 -2 -2 -1 -1 -2 -2
4 4 4 3 3 3 2 2 2 2 1 -0 -0 -1 -1 -1 -1 -1 -1 -1 -1 -1 -1 -1 -1 -1 -1 -1 -1 -2 -2 -2 -2 -2 -2 -2 -2 -2 -1 -2 -2 -2 -2
3 3 3 3 3 2 2 2 2 1 -0 -0 -1 -1 -1 -1 -1 -2 -1 -1 -2 -2 -2 -2 -2 -2 -1 -1 -2 -2 -2 -2 -2 -2 -2 -2 -2 -2 -2 -2 -2 -2 -2
Height
3158 3156 3154 3154 3155 3155 3156 3155 3154 3154 3153 3152 3152 3152 3151 3153 3153 3152 3153 3154 3154 3154 3154 3154 3154 3155 3155 3156 3157 3159 3159 3160 3161 3162 3163 3164 3165 3166 3167 3167 3167 3167 3168
3157 3156 3154 3153 3153 3154 3154 3154 3154 3154 3153 3152 3150 3150 3150 3149 3150 3150 3150 3151 3152 3152 3152 3152 3152 3152 3153 3154 3155 3156 3157 3158 3159 3160 3161 3162 3163 3164 3165 3165 3165 3166 3166
3156 3154 3153 3153 3152 3153 3153 3154 3153 3152 3152 3151 3150 3149 3148 3148 3147 3147 3147 3147 3148 3149 3149 3150 3151 3151 3152 3152 3153 3154 3154 3155 3157 3158 3159 3159 3160 3161 3162 3162 3163 3163 3162
3154 3153 3153 3152 3151 3152 3152 3152 3152 3151 3150 3149 3148 3147 3146 3145 3144 3144 3144 3144 3143 3145 3146 3147 3148 3149 3150 3150 3150 3151 3152 3153 3153 3155 3156 3157 3157 3158 3158 3159 3159 3160 3159
3152 3151 3150 3149 3149 3150 3149 3149 3148 3148 3146 3145 3145 3144 3143 3142 3141 3140 3141 3141 3141 3142 3143 3143 3144 3145 3146 3147 3148 3148 3150 3151 3151 3151 3152 3152 3153 3154 3155 3156 3155 3155 3155
3150 3149 3148 3148 3147 3147 3146 3145 3144 3144 3144 3143 3140 3139 3138 3138 3137 3137 3137 3138 3139 3139 3139 3140 3141 3142 3142 3143 3144 3145 3147 3147 3148 3148 3148 3148 3148 3149 3150 3151 3151 3152 3152
3147 3147 3146 3146 3146 3146 3144 3142 3141 3140 3140 3137 3133 3133 3132 3133 3133 3133 3134 3134 3135 3136 3137 3137 3138 3139 3140 3141 3142 3142 3143 3144 3144 3144 3144 3144 3144 3145 3146 3146 3147 3148 3148
3144 3144 3143 3144 3144 3144 3142 3140 3139 3138 3136 3132 3127 3127 3126 3126 3128 3130 3130 3131 3132 3133 3133 3134 3135 3136 3137 3139 3139 3139 3140 3140 3141 3141 3140 3141 3141 3141 3142 3142 3143 3143 3144
3142 3142 3142 3142 3142 3142 3140 3139 3137 3135 3133 3130 3125 3122 3120 3121 3123 3126 3127 3127 3128 3130 3130 3131 3132 3133 3134 3135 3136 3136 3136 3137 3137 3137 3138 3138 3138 3138 3138 3138 3138 3139 3138
3139 3138 3138 3138 3139 3138 3137 3135 3134 3133 3130 3128 3125 3119 3116 3116 3118 3121 3123 3124 3125 3126 3127 3128 3128 3129 3129 3131 3131 3132 3132 3132 3133 3133 3133 3133 3133 3133 3133 3133 3134 3134 3134
3135 3136 3135 3134 3134 3134 3133 3132 3131 3130 3128 3126 3123 3120 3116 3112 3113 3116 3119 3121 3122 3122 3122 3123 3124 3125 3126 3126 3127 3127 3127 3128 3128 3128 3128 3128 3128 3128 3128 3128 3128 3128 3128
3130 3131 3131 3131 3130 3130 3130 3128 3127 3126 3125 3124 3121 3119 3116 3113 3113 3112 3114 3116 3118 3120 3120 3120 3120 3121 3122 3123 3123 3123 3123 3123 3123 3123 3122 3122 3122 3122 3122 3122 3122 3122 3122
3125 3126 3127 3127 3125 3126 3126 3125 3124 3122 3121 3120 3119 3116 3113 3111 3111 3111 3113 3112 3114 3117 3118 3118 3118 3118 3118 3118 3118 3118 3118 3118 3117 3117 3116 3115 3115 3115 3116 3115 3116 3116 3116
3120 3123 3123 3122 3120 3120 3120 3119 3119 3118 3117 3115 3113 3112 3111 3110 3108 3107 3107 3109 3110 3112 3111 3114 3113 3113 3113 3113 3114 3113 3113 3112 3112 3111 3111 3109 3109 3108 3108 3108 3108 3109 3109
3114 3116 3117 3116 3115 3115 3115 3115 3114 3113 3112 3110 3108 3107 3104 3104 3104 3104 3104 3105 3105 3107 3106 3107 3107 3107 3106 3107 3107 3106 3107 3106 3105 3105 3104 3103 3102 3101 3101 3101 3101 3102 3103
3106 3109 3111 3110 3110 3109 3110 3110 3109 3106 3105 3102 3100 3099 3097 3097 3096 3096 3096 3097 3099 3100 3100 3100 3101 3100 3100 3100 3099 3099 3098 3098 3097 3096 3096 3096 3095 3094 3093 3093 3093 3094 3094
3100 3103 3103 3103 3103 3105 3105 3103 3102 3099 3096 3094 3092 3089 3089 3088 3088 3087 3087 3087 3088 3089 3090 3090 3095 3094 3094 3094 3092 3089 3088 3089 3088 3087 3087 3086 3086 3085 3087 3086 3086 3086 3086
3093 3096 3098 3099 3098 3099 3098 3097 3095 3093 3089 3088 3085 3084 3083 3083 3082 3081 3081 3080 3080 3080 3081 3081 3082 3083 3082 3083 3082 3074 3079 3079 3078 3078 3078 3078 3078 3077 3079 3079 3079 3078 3078
3089 3091 3093 3091 3091 3091 3091 3089 3088 3086 3084 3083 3080 3079 3078 3077 3076 3076 3074 3072 3071 3072 3072 3073 3074 3074 3074 3072 3072 3072 3071 3067 3066 3066 3065 3068 3069 3068 3068 3069 3070 3070 3070
3086 3087 3087 3086 3085 3085 3083 3082 3081 3080 3078 3076 3074 3074 3074 3073 3071 3070 3069 3067 3065 3064 3064 3065 3065 3066 3065 3064 3063 3057 3057 3058 3057 3053 3055 3055 3057 3059 3059 3060 3060 3061 3061
3080 3079 3079 3079 3078 3078 3077 3076 3074 3074 3073 3071 3069 3069 3068 3067 3066 3064 3064 3063 3061 3058 3059 3060 3060 3058 3057 3055 3055 3052 3051 3051 3052 3049 3050 3049 3047 3048 3050 3050 3051 3052 3052
3073 3072 3072 3071 3070 3071 3070 3068 3066 3065 3065 3065 3065 3063 3062 3061 3059 3059 3059 3057 3056 3054 3052 3052 3052 3052 3050 3049 3046 3045 3045 3043 3041 3041 3041 3039 3037 3036 3036 3038 3039 3040 3040
3064 3063 3063 3063 3062 3061 3060 3059 3059 3058 3057 3057 3057 3057 3057 3056 3056 3053 3053 3051 3050 3048 3046 3047 3046 3045 3044 3041 3040 3037 3034 3032 3031 3029 3029 3029 3027 3023 3025 3026 3026 3027 3026
3056 3055 3054 3054 3053 3053 3052 3052 3052 3051 3051 3050 3052 3051 3050 3049 3048 3048 3047 3045 3044 3043 3041 3038 3037 3037 3035 3032 3031 3029 3026 3024 3022 3019 3018 3017 3016 3015 3011 3008 3007 3011 3011
3050 3049 3047 3046 3046 3046 3046 3046 3045 3045 3045 3045 3046 3046 3045 3045 3043 3041 3039 3038 3037 3034 3033 3030 3026 3027 3026 3023 3019 3017 3015 3013 3011 3009 3007 3006 3006 3004 3003 3000 2999 3000 2999
3045 3045 3044 3044 3043 3043 3042 3041 3041 3040 3040 3039 3040 3041 3040 3038 3036 3033 3031 3031 3030 3027 3023 3022 3017 3017 3016 3013 3009 3007 3004 3001 3000 3000 2997 2995 2994 2992 2990 2989 2989 2987 2986
Wind_Speed
7 9 4 2 5 4 3 1 1 3 4 5 5 8 10 12 13 11 10 11 10 10 11 11 12 12 11 12 14 15 14 11 11 11 12 13 13 13 12 11 10 9 8
6 7 5 1 5 5 5 4 4 6 7 8 7 7 8 10 12 11 9 9 9 8 8 9 9 12 12 13 13 12 13 12 11 13 12 11 13 14 12 12 12 11 11
5 5 5 3 3 6 7 7 7 7 9 11 10 9 8 10 10 11 11 11 10 9 8 8 9 10 12 13 13 12 12 12 13 13 13 11 12 13 15 14 16 12 12
4 4 5 4 3 5 8 10 10 10 11 11 16 13 12 12 11 12 13 12 12 12 11 11 11 11 11 11 11 11 12 13 14 14 14 13 15 14 16 13 11 13 15
7 4 6 6 5 7 9 11 13 15 13 15 15 16 19 15 15 14 14 15 14 13 12 12 11 11 10 10 10 10 11 12 13 14 14 14 15 15 14 18 14 14 15
10 6 5 7 7 9 12 14 15 14 15 16 22 21 18 19 15 16 15 16 15 13 12 11 11 10 9 9 9 9 10 11 13 14 14 14 16 16 16 12 17 19 20
11 8 6 8 8 10 11 12 8 7 11 19 18 17 19 22 18 16 16 15 15 14 13 12 11 11 11 11 11 11 11 11 13 14 14 14 15 16 17 16 14 16 18
11 10 8 9 9 9 5 5 8 11 17 21 11 22 20 21 22 17 16 16 16 15 14 14 13 13 12 12 12 12 13 12 12 13 13 14 15 15 15 16 16 15 16
12 12 11 10 8 7 5 5 8 12 17 22 22 15 17 21 23 19 15 14 17 17 15 15 15 15 15 14 14 14 14 13 13 12 13 14 15 15 15 16 16 16 17
16 14 12 10 9 7 7 7 9 12 16 19 23 22 12 22 19 16 15 14 14 16 15 16 17 16 16 16 16 15 15 14 13 13 13 14 15 16 17 17 17 17 18
16 15 14 12 11 9 8 8 9 13 16 18 19 18 18 14 23 14 12 12 15 14 14 15 16 17 17 17 16 16 15 15 15 14 14 14 15 16 17 17 17 17 17
17 17 16 15 11 10 10 10 11 12 15 18 18 17 15 12 11 15 14 16 13 15 14 13 14 14 15 16 16 16 15 15 15 15 15 16 17 17 18 18 17 17 17
17 16 17 15 11 11 11 10 12 12 14 16 17 17 14 11 9 14 25 14 15 14 16 16 14 13 14 14 15 16 17 17 17 16 17 17 18 19 18 18 19 19 18
17 19 18 16 14 13 14 14 16 15 16 16 18 20 21 18 13 10 9 9 14 22 16 16 16 15 15 15 18 21 21 21 21 20 20 21 21 20 20 21 21 21 21
22 21 19 17 16 16 16 18 18 16 19 21 22 24 23 22 20 18 20 18 18 22 31 38 36 26 31 28 26 27 29 27 24 23 23 23 23 23 22 23 24 24 23
21 22 21 19 18 17 19 19 20 19 22 23 25 25 25 23 24 25 23 24 26 31 31 34 33 23 33 32 31 34 36 31 28 25 25 28 27 25 25 25 26 25 24
28 26 21 18 17 19 21 22 24 24 24 25 23 22 23 22 22 24 27 26 28 28 30 29 35 42 34 37 37 34 31 32 29 30 30 29 29 26 29 28 28 28 27
22 20 17 17 18 21 23 25 25 22 21 21 19 20 21 21 21 21 23 25 28 30 32 35 36 35 31 36 42 34 29 33 31 31 32 31 31 28 29 29 30 28 27
11 14 16 17 21 24 24 24 22 18 17 16 17 19 18 18 20 20 20 22 24 25 28 27 32 31 34 36 36 35 42 42 38 32 30 28 30 35 32 29 29 29 28
13 16 18 20 23 23 21 20 17 16 15 14 16 18 20 19 19 20 21 22 21 22 23 23 27 32 28 29 32 34 27 38 37 32 31 34 32 33 32 30 28 33 31
16 18 19 20 21 22 22 19 18 19 19 18 20 21 21 20 18 18 19 22 22 22 22 24 27 27 30 31 34 33 36 35 33 36 37 36 31 36 35 34 31 33 32
22 21 20 19 18 20 20 21 21 21 22 23 22 24 23 23 21 21 22 22 25 25 24 24 22 24 27 31 34 37 40 40 36 34 37 36 38 39 38 36 36 37 38
20 19 19 18 18 18 19 19 19 20 21 23 25 25 24 24 23 23 24 25 26 27 27 28 27 29 32 34 35 34 35 37 38 36 35 38 36 40 32 42 46 45 46
17 17 18 18 19 18 17 17 18 18 18 20 18 22 21 23 23 24 24 26 26 28 29 31 32 33 34 35 34 34 32 30 31 27 32 36 38 41 42 52 54 47 47
13 13 13 14 15 16 16 15 15 15 15 15 16 17 18 19 23 25 27 25 26 29 31 34 29 30 35 41 41 40 39 38 42 41 36 35 37 35 37 40 40 45 49
9 8 8 7 7 8 9 10 11 11 11 11 13 20 20 22 22 27 30 35 32 30 30 30 26 26 31 35 32 32 32 33 34 38 40 42 41 39 41 45 44 42 43
Wind_Direction
352 8 18 175 184 198 228 276 332 331 333 320 288 255 241 240 241 235 238 244 253 256 250 246 236 235 230 228 229 234 241 238 240 251 237 234 229 233 247 252 247 243 245
342 3 14 177 198 208 242 265 287 314 324 329 326 296 260 236 235 234 234 237 241 242 236 237 236 231 228 227 225 235 243 237 234 252 250 243 241 240 249 245 239 247 255
311 341 1 344 229 236 246 258 273 285 300 310 319 314 286 267 246 234 226 232 241 250 253 248 242 237 235 234 232 231 236 238 232 245 247 238 250 252 258 249 245 254 263
287 312 306 315 302 273 270 276 278 278 287 303 306 305 301 277 255 249 245 237 235 242 246 249 249 248 245 240 238 240 241 241 238 238 240 248 257 254 262 262 258 246 270
282 278 285 283 294 289 283 279 284 284 273 268 307 303 290 291 270 250 247 247 242 242 247 248 243 239 238 241 239 237 241 242 242 242 240 250 257 261 255 243 259 268 252
273 260 281 282 278 294 299 295 281 284 302 297 293 286 288 280 280 255 247 245 247 246 243 243 241 235 231 231 235 241 246 251 255 255 254 256 258 255 267 256 247 241 264
264 254 277 282 293 307 309 314 317 320 334 330 275 292 270 264 273 258 253 245 244 243 242 238 237 236 236 237 239 243 248 255 257 256 255 254 256 255 258 255 252 251 256
256 254 268 282 289 305 330 44 16 354 347 353 307 287 267 248 252 261 248 242 241 240 242 239 233 233 236 240 244 249 253 257 262 259 253 252 250 247 249 249 252 251 256
246 246 258 263 285 288 297 340 345 344 346 350 3 281 275 236 244 256 249 249 243 240 239 241 239 237 240 249 256 257 257 258 254 250 249 249 249 252 251 251 251 254 259
240 236 244 249 259 278 279 296 324 334 340 348 352 355 265 233 237 238 251 249 250 237 237 240 243 245 250 254 258 260 265 261 258 256 253 256 255 252 252 252 254 256 257
246 243 245 242 253 269 276 298 312 324 331 343 350 2 13 284 248 222 245 247 250 245 237 240 247 251 253 255 257 260 258 257 256 257 262 264 261 260 259 258 257 256 257
241 243 242 242 247 268 279 291 301 317 324 330 339 342 349 354 269 258 229 266 247 259 256 255 252 255 259 262 260 261 261 261 257 260 266 268 265 263 262 260 258 258 258
247 244 247 244 248 261 274 291 297 307 314 320 327 329 331 334 328 273 241 214 244 262 259 257 264 266 268 272 275 272 269 267 262 263 266 268 266 267 267 263 261 260 259
259 251 246 245 250 262 273 282 288 295 302 312 319 321 322 319 295 295 253 340 270 237 270 265 272 273 276 284 286 287 277 268 267 266 266 265 264 267 268 263 262 262 263
238 251 247 250 254 261 268 272 277 287 298 306 311 313 306 301 293 271 262 262 245 245 244 248 253 262 275 274 278 287 283 269 265 266 267 270 267 268 267 261 259 259 261
242 256 249 250 254 260 263 270 278 287 297 305 311 312 306 297 288 278 269 261 263 259 262 257 250 252 255 265 269 272 269 269 267 264 267 268 265 268 265 260 259 260 260
241 243 240 245 251 257 267 274 282 293 302 306 307 307 306 301 290 281 271 264 261 252 261 266 262 260 267 268 267 267 265 264 264 264 261 260 262 261 264 262 261 258 257
214 230 240 249 259 268 275 280 289 298 306 307 311 312 312 309 300 289 282 274 267 265 260 265 261 266 266 271 273 254 264 270 261 259 262 264 261 260 261 258 259 257 255
225 241 255 265 272 277 279 283 288 293 298 308 315 313 313 313 313 310 300 288 279 270 269 270 267 265 264 263 277 276 280 261 255 248 253 260 261 261 258 260 261 260 259
262 266 272 278 279 281 288 289 288 289 294 300 301 301 306 313 314 313 310 308 300 292 286 277 270 267 280 268 270 282 287 266 262 268 271 251 248 257 257 257 259 266 261
277 282 283 285 289 287 285 285 290 293 292 294 298 296 299 300 298 299 300 302 304 307 296 302 271 277 276 281 287 293 285 279 278 266 265 264 250 251 249 251 255 258 257
290 288 287 283 281 283 287 290 291 289 290 291 290 289 293 293 294 298 299 299 294 294 293 299 287 280 281 285 285 286 283 285 286 279 265 265 262 258 241 246 242 246 252
289 289 288 289 290 289 290 290 289 289 290 287 286 285 287 291 294 297 296 296 291 287 286 290 287 276 277 283 286 284 279 278 278 276 276 267 266 259 258 249 245 245 248
296 294 291 288 287 288 288 289 291 293 293 299 291 296 290 291 292 294 295 296 293 290 288 285 283 279 278 280 277 276 279 280 277 281 265 265 257 261 266 261 251 255 254
303 300 294 289 286 286 287 290 293 294 296 301 295 300 297 295 295 293 291 291 293 293 289 290 285 282 282 287 274 269 270 273 276 273 279 276 273 272 275 272 265 262 263
320 320 319 314 310 309 306 305 301 301 307 315 297 293 299 289 287 296 291 297 295 298 296 293 294 286 281 283 295 295 298 285 278 282 282 281 279 274 280 274 275 281 285